sat.trackr.live / text

‹ back to catalog

STARLINK-1686

NORAD 46328 · 2020-062D

PAYLOAD ACTIVE UNKNOWN

§ Identity

Operator
Country
US
Launch date
2020-09-03
Launch site
AFETR
Launch vehicle
Mass (kg)
RCS (m²)

Purposes: comms

External: N2YO · Heavens-Above · Gunter

§ Orbital elements

Epoch: 2026-05-30T05:58:43.975776Z

Period
87.93 min
Inclination
53.0157°
Eccentricity
0.0010024
Mean motion
16.37742367 rev/d
Perigee alt
165.2 km
Apogee alt
178.4 km
Semi-major
6,550.0 km
B*
7.4025e-4
RAAN
260.8824°
Arg perigee
293.3711°
Mean anomaly
66.6279°
Rev number
31,813

§ Raw data

STARLINK-16861 46328U 20062D   26150.24912009  .07937814  12360-4  74025-3 0  99902 46328  53.0157 260.8824 0010024 293.3711  66.6279 16.37742367318137

JSON: /api/v1/satellites/46328 · /tle

For live sub-satellite position, see the globe view (requires WebGL).

§ Visibility from observer

Set your observer location to see the next 7 days of passes ≥ 10°. The values pass through the URL so the page stays shareable.

No JS? Fill the form by hand. The geolocation button needs JavaScript.